ECHOSTAR 14

Last updated on Thu Oct 30 2025 00:02:48 GMT+0000 (Coordinated Universal Time)

1 36499U 10010A 25302.52526170 .00000010 00000+0 00000+0 0 9992 2 36499 0.0175 250.2582 0002152 330.4107 247.6690 1.00271861 44242
UTC large
Height (km)
Speed (km/s)
/
Latitude / Longitude
Inclination (degrees)
Orbital Period (minutes)
Azimuth
Elevation
Range (km)
Doppler Factor

Next 0 passes for location: London (51.5072 / 0.1276)

Sorry there are no passes over London.